TA5KA Weather Reports


time (UTC)temp
C
wind
direction
speed
KPH
gust
KPH
rain 1hr
cm
rain 24hr
cm
rain mn
cm
humidity
%
barometer
mb
20260906114047 28 35 8.0 8.0 0.00 0.00 0.00 14 1014.0
20260906113046 28 35 8.0 8.0 0.00 0.00 0.00 14 1014.0
20260906112045 28 35 8.0 8.0 0.00 0.00 0.00 14 1014.0
20260906111044 28 35 8.0 8.0 0.00 0.00 0.00 14 1014.0
20260906110042 28 35 8.0 8.0 0.00 0.00 0.00 14 1014.0
20260906105041 27 33 9.7 9.7 0.00 0.00 0.00 15 1014.0
20260906104039 27 33 9.7 9.7 0.00 0.00 0.00 15 1014.0
20260906103038 27 33 9.7 9.7 0.00 0.00 0.00 15 1014.0
20260906102036 27 33 9.7 9.7 0.00 0.00 0.00 15 1014.0
20260906101035 27 33 9.7 9.7 0.00 0.00 0.00 15 1014.0
20260906100033 27 33 9.7 9.7 0.00 0.00 0.00 15 1014.0
20260906095032 27 33 8.0 9.7 0.00 0.00 0.00 16 1015.0
20260906094030 27 33 8.0 9.7 0.00 0.00 0.00 16 1015.0
20260906093029 27 33 8.0 9.7 0.00 0.00 0.00 16 1015.0
20260906092028 27 33 8.0 9.7 0.00 0.00 0.00 16 1015.0
20260906091026 27 33 8.0 9.7 0.00 0.00 0.00 16 1015.0
20260906090024 25 26 8.0 9.7 0.00 0.00 0.00 19 1015.0
20260906085023 25 26 8.0 9.7 0.00 0.00 0.00 19 1015.0
20260906084022 25 26 8.0 9.7 0.00 0.00 0.00 19 1015.0
20260906083020 25 26 8.0 9.7 0.00 0.00 0.00 19 1015.0
20260906082018 25 26 8.0 9.7 0.00 0.00 0.00 19 1015.0
20260906081017 25 26 8.0 9.7 0.00 0.00 0.00 19 1015.0
20260906080016 23 39 8.0 9.7 0.00 0.00 0.00 24 1016.0
20260906075014 23 39 8.0 9.7 0.00 0.00 0.00 24 1016.0
20260906074013 23 39 8.0 9.7 0.00 0.00 0.00 24 1016.0
20260906073011 24 32 8.0 9.7 0.00 0.00 0.00 23 1016.0
20260906072010 24 32 8.0 9.7 0.00 0.00 0.00 23 1016.0
20260906071009 24 32 8.0 9.7 0.00 0.00 0.00 23 1016.0
20260906070007 21 41 6.4 11.3 0.00 0.00 0.00 32 1015.0
20260906065006 21 41 6.4 11.3 0.00 0.00 0.00 32 1015.0
20260906064005 21 41 6.4 11.3 0.00 0.00 0.00 32 1015.0
20260906063003 21 41 6.4 11.3 0.00 0.00 0.00 32 1015.0
20260906062002 21 41 6.4 11.3 0.00 0.00 0.00 32 1015.0
20260906061001 21 41 6.4 11.3 0.00 0.00 0.00 32 1015.0
20260906060001 19 43 4.8 8.0 0.00 0.00 0.00 43 1016.0
20260906055959 19 43 4.8 8.0 0.00 0.00 0.00 43 1016.0
20260906054957 19 43 4.8 8.0 0.00 0.00 0.00 43 1016.0
20260906053956 19 43 4.8 8.0 0.00 0.00 0.00 43 1016.0
20260906052955 19 43 4.8 8.0 0.00 0.00 0.00 43 1016.0
20260906051953 19 43 4.8 8.0 0.00 0.00 0.00 43 1016.0
20260906050952 19 43 4.8 8.0 0.00 0.00 0.00 43 1016.0
20260906045950 16 74 4.8 4.8 0.00 0.00 0.00 50 1016.0
20260906044949 16 74 4.8 4.8 0.00 0.00 0.00 50 1016.0
20260906043948 16 74 4.8 4.8 0.00 0.00 0.00 50 1016.0
20260906042946 16 74 4.8 4.8 0.00 0.00 0.00 50 1016.0
20260906041945 16 74 4.8 4.8 0.00 0.00 0.00 50 1016.0
20260906040944 16 74 4.8 4.8 0.00 0.00 0.00 50 1016.0
20260906035942 16 51 3.2 3.2 0.00 0.00 0.00 51 1016.0
20260906034940 16 51 3.2 3.2 0.00 0.00 0.00 51 1016.0
20260906033939 16 51 3.2 3.2 0.00 0.00 0.00 51 1016.0
20260906032937 16 51 3.2 3.2 0.00 0.00 0.00 51 1016.0
20260906031936 16 51 3.2 3.2 0.00 0.00 0.00 51 1016.0
20260906030935 16 51 3.2 3.2 0.00 0.00 0.00 51 1016.0
20260906025933 16 47 3.2 3.2 0.00 0.00 0.00 48 1015.0
20260906024931 16 52 3.2 3.2 0.00 0.00 0.00 50 1015.0
20260906023930 16 52 3.2 3.2 0.00 0.00 0.00 50 1015.0
20260906022929 16 52 3.2 3.2 0.00 0.00 0.00 50 1015.0
20260906021927 16 52 3.2 3.2 0.00 0.00 0.00 50 1015.0
20260906020926 16 52 3.2 3.2 0.00 0.00 0.00 50 1015.0
20260906015924 16 38 3.2 3.2 0.00 0.00 0.00 47 1015.0
20260906014923 16 38 3.2 3.2 0.00 0.00 0.00 47 1015.0
20260906013922 16 38 3.2 3.2 0.00 0.00 0.00 47 1015.0
20260906012921 16 38 3.2 3.2 0.00 0.00 0.00 47 1015.0
20260906011920 16 38 3.2 3.2 0.00 0.00 0.00 47 1015.0
20260906010918 16 38 3.2 3.2 0.00 0.00 0.00 47 1015.0
20260906005916 17 52 3.2 3.2 0.00 0.00 0.00 42 1015.0
20260906004915 17 52 3.2 3.2 0.00 0.00 0.00 42 1015.0
20260906003913 17 52 3.2 3.2 0.00 0.00 0.00 42 1015.0
20260906002912 17 52 3.2 3.2 0.00 0.00 0.00 42 1015.0
20260906001911 17 52 3.2 3.2 0.00 0.00 0.00 42 1015.0
20260906000909 17 52 3.2 3.2 0.00 0.00 0.00 42 1015.0
20260905235908 18 70 4.8 4.8 0.00 0.00 0.00 38 1015.0
20260905234907 18 70 4.8 4.8 0.00 0.00 0.00 38 1015.0
20260905233905 18 70 4.8 4.8 0.00 0.00 0.00 38 1015.0
20260905232904 18 70 4.8 4.8 0.00 0.00 0.00 38 1015.0
20260905231903 18 70 4.8 4.8 0.00 0.00 0.00 38 1015.0
20260905230901 18 70 4.8 4.8 0.00 0.00 0.00 38 1015.0
20260905225900 19 74 4.8 6.4 0.00 0.00 0.00 33 1015.0
20260905224858 19 74 4.8 6.4 0.00 0.00 0.00 33 1015.0
20260905223857 19 74 4.8 6.4 0.00 0.00 0.00 33 1015.0
20260905222855 19 74 4.8 6.4 0.00 0.00 0.00 33 1015.0
20260905221854 19 74 4.8 6.4 0.00 0.00 0.00 33 1015.0
20260905220852 19 74 4.8 6.4 0.00 0.00 0.00 33 1015.0
20260905215851 19 74 4.8 6.4 0.00 0.00 0.00 33 1015.0
20260905214849 19 74 4.8 6.4 0.00 0.00 0.00 33 1015.0
20260905213848 19 74 4.8 6.4 0.00 0.00 0.00 33 1015.0
20260905212846 19 74 4.8 6.4 0.00 0.00 0.00 33 1015.0
20260905211844 19 74 4.8 6.4 0.00 0.00 0.00 33 1015.0
20260905210843 19 74 4.8 6.4 0.00 0.00 0.00 33 1015.0
20260905205841 20 69 4.8 6.4 0.00 0.00 0.00 25 1015.0
20260905204840 20 69 4.8 6.4 0.00 0.00 0.00 25 1015.0
20260905203839 20 73 6.4 8.0 0.00 0.00 0.00 26 1015.0
20260905202837 20 73 6.4 8.0 0.00 0.00 0.00 26 1015.0
20260905201835 20 73 6.4 8.0 0.00 0.00 0.00 26 1015.0
20260905200833 20 73 6.4 8.0 0.00 0.00 0.00 26 1015.0
20260905195832 21 80 6.4 8.0 0.00 0.00 0.00 23 1015.0
20260905194830 21 80 6.4 8.0 0.00 0.00 0.00 23 1015.0
20260905193829 21 80 6.4 8.0 0.00 0.00 0.00 23 1015.0
20260905192827 21 80 6.4 8.0 0.00 0.00 0.00 23 1015.0
20260905191825 21 80 6.4 8.0 0.00 0.00 0.00 23 1015.0
20260905190824 21 80 6.4 8.0 0.00 0.00 0.00 23 1015.0
20260905185823 21 72 6.4 14.5 0.00 0.00 0.00 22 1014.0
20260905184821 21 72 6.4 14.5 0.00 0.00 0.00 22 1014.0
20260905183820 21 72 6.4 14.5 0.00 0.00 0.00 22 1014.0
20260905182818 21 72 6.4 14.5 0.00 0.00 0.00 22 1014.0
20260905181817 21 72 6.4 14.5 0.00 0.00 0.00 22 1014.0
20260905180816 21 72 6.4 14.5 0.00 0.00 0.00 22 1014.0
20260905175814 22 49 6.4 16.1 0.00 0.00 0.00 20 1014.0
20260905174812 22 49 6.4 16.1 0.00 0.00 0.00 20 1014.0
20260905173810 22 49 6.4 16.1 0.00 0.00 0.00 20 1014.0
20260905172809 22 49 6.4 16.1 0.00 0.00 0.00 20 1014.0
20260905171808 22 49 6.4 16.1 0.00 0.00 0.00 20 1014.0
20260905170806 22 49 6.4 16.1 0.00 0.00 0.00 20 1014.0
20260905165805 25 34 8.0 14.5 0.00 0.00 0.00 18 1013.0
20260905164804 25 34 8.0 14.5 0.00 0.00 0.00 18 1013.0
20260905163803 25 34 8.0 14.5 0.00 0.00 0.00 18 1013.0
20260905162801 25 34 8.0 14.5 0.00 0.00 0.00 18 1013.0
20260905161804 25 34 8.0 14.5 0.00 0.00 0.00 18 1013.0
20260905161800 25 34 8.0 14.5 0.00 0.00 0.00 18 1013.0
20260905160802 25 34 8.0 14.5 0.00 0.00 0.00 18 1013.0
20260905160758 25 34 8.0 14.5 0.00 0.00 0.00 18 1013.0
20260905155801 27 34 11.3 19.3 0.00 0.00 0.00 17 1012.0
20260905154756 27 34 11.3 19.3 0.00 0.00 0.00 17 1012.0
20260905153755 27 34 11.3 19.3 0.00 0.00 0.00 17 1012.0
20260905152753 27 34 11.3 19.3 0.00 0.00 0.00 17 1012.0
20260905151752 27 34 11.3 19.3 0.00 0.00 0.00 17 1012.0
20260905150750 27 34 11.3 19.3 0.00 0.00 0.00 17 1012.0
20260905145749 28 33 11.3 17.7 0.00 0.00 0.00 17 1012.0
20260905144748 28 33 11.3 17.7 0.00 0.00 0.00 17 1012.0
20260905143746 28 33 11.3 17.7 0.00 0.00 0.00 17 1012.0
20260905142745 28 33 11.3 17.7 0.00 0.00 0.00 17 1012.0
20260905141743 28 31 11.3 19.3 0.00 0.00 0.00 18 1012.0
20260905140742 28 31 11.3 19.3 0.00 0.00 0.00 18 1012.0
20260905135740 29 31 11.3 16.1 0.00 0.00 0.00 18 1012.0
20260905134739 29 31 11.3 16.1 0.00 0.00 0.00 18 1012.0
20260905133738 29 31 11.3 16.1 0.00 0.00 0.00 18 1012.0
20260905132736 29 31 11.3 16.1 0.00 0.00 0.00 18 1012.0
20260905131735 29 31 11.3 16.1 0.00 0.00 0.00 18 1012.0
20260905130734 29 31 11.3 16.1 0.00 0.00 0.00 18 1012.0
20260905125732 29 31 9.7 17.7 0.00 0.00 0.00 18 1012.0
20260905124731 29 31 9.7 17.7 0.00 0.00 0.00 18 1012.0
20260905123730 29 31 9.7 17.7 0.00 0.00 0.00 18 1012.0
20260905122728 29 31 9.7 17.7 0.00 0.00 0.00 18 1012.0
20260905121727 29 31 9.7 17.7 0.00 0.00 0.00 18 1012.0
20260905120726 29 31 9.7 17.7 0.00 0.00 0.00 18 1012.0
20260905115724 29 32 9.7 17.7 0.00 0.00 0.00 19 1013.0
20260905114723 29 32 9.7 17.7 0.00 0.00 0.00 19 1013.0